Location: Heiligenberg
(48.5381°N, 7.3897°E)
Time: 21:24:47
(UTC+00:00)

Cosmos 1455 - Pass Details

Date: 26 May 2022
Orbit: 492 x 514 km, 82.5° (Epoch: 02 July)

Event Time Altitude Azimuth Distance (km) Brightness Sun altitude
Rises 02:22:28 0° 337° (NNW) 2,587 6.1 -10.2°
Reaches altitude 10° 02:24:57 10° 321° (NW) 1,698 4.9 -9.9°
Maximum altitude 02:27:46 21° 272° (W) 1,160 3.6 -9.6°
Enters shadow 02:29:59 13° 229° (SW) 1,510 3.9 -9.3°
